Theta_e
323 323 322 323 322 322 322 321 318 313 312 311 312 312 311 312 312 313 312 312 312 312 312 312 313 313 315 315 315 315 316 317 318 317 318 320 322 322 320 325 329 329 327 325 326 325 322 320 324 322 321 320 319 319 318 317 317 316 316 315 315 314 314 313 313 313 313 313 312 312 312 312 312 312 312 312 312 312 311 310 311 311 310 310 309
323 322 322 322 321 320 321 320 317 312 312 311 310 311 311 311 311 311 312 312 312 311 312 312 312 312 313 314 314 314 315 316 317 318 318 319 320 323 316 321 325 329 327 326 326 325 323 321 319 321 321 320 319 318 319 318 317 316 315 315 314 314 314 313 313 313 312 312 312 312 312 311 311 311 311 311 311 311 310 310 310 310 308 309 309
322 321 322 322 321 320 320 319 316 312 312 310 309 310 310 311 311 311 311 311 310 310 311 312 311 311 310 312 312 312 313 314 315 315 316 319 320 321 322 316 323 328 328 327 326 325 323 323 323 321 319 318 317 317 316 317 317 317 316 315 314 314 313 313 312 312 312 312 311 311 311 311 311 311 310 310 310 310 310 309 309 309 309 308 308
321 320 322 321 320 320 319 318 318 311 311 309 308 309 309 309 308 309 309 310 309 309 309 311 310 309 309 309 309 311 311 312 313 313 315 316 319 319 320 319 316 321 325 328 326 325 324 325 324 323 322 321 321 320 319 318 317 316 315 316 315 313 314 313 313 312 312 312 311 311 311 310 310 310 310 310 309 309 309 308 308 308 307 308 308
320 320 319 320 320 319 319 318 317 312 311 309 308 307 307 307 307 306 307 308 308 308 307 308 309 307 307 307 307 309 308 309 311 311 312 314 317 319 318 316 316 312 315 321 326 325 324 322 325 322 322 321 320 319 318 316 316 317 316 316 315 314 314 313 312 312 312 312 311 311 311 310 310 309 309 308 308 308 308 308 308 307 306 307 307
319 318 319 319 318 319 319 317 316 311 310 308 307 307 307 307 306 307 306 308 309 308 308 308 305 303 304 304 305 306 306 308 308 309 308 310 313 316 317 315 313 313 314 314 320 324 325 322 323 322 321 322 321 321 320 319 319 317 316 315 315 314 314 313 312 312 312 312 311 310 310 310 310 309 309 308 307 307 307 307 307 307 306 305 307
319 318 317 317 316 316 317 317 315 311 310 308 307 305 306 306 305 307 306 306 306 305 306 307 305 305 304 302 304 303 303 306 305 307 307 307 307 311 313 314 312 309 308 312 312 318 322 322 323 323 322 322 321 321 323 321 319 319 317 317 315 315 314 313 313 312 311 311 311 310 310 309 309 309 308 308 307 307 306 306 305 306 306 305 306
319 318 316 316 316 315 316 316 315 311 310 307 306 305 305 306 305 308 306 306 305 305 305 305 303 303 301 300 301 300 302 303 304 305 306 305 307 308 309 310 311 310 307 310 311 314 316 319 322 324 322 321 322 322 321 322 322 320 319 318 317 315 315 314 313 313 311 311 310 309 309 309 308 308 308 307 307 306 307 306 306 306 306 306 307
319 318 316 315 315 315 315 315 315 313 311 308 306 307 305 305 305 306 309 307 305 306 304 304 302 302 300 299 299 299 301 302 303 303 303 304 306 306 306 307 307 305 312 309 307 310 313 316 319 322 322 322 321 321 320 320 320 321 321 318 316 316 315 313 313 313 312 310 310 309 309 308 308 308 307 307 307 306 306 306 306 306 306 306 306
321 319 318 316 315 315 315 315 314 313 312 309 308 307 307 307 305 305 307 307 305 306 305 304 303 300 298 299 299 298 299 301 301 300 302 304 305 306 306 305 305 306 307 309 308 307 309 312 314 315 314 316 322 320 320 320 320 319 323 319 316 316 316 314 312 312 311 310 309 309 308 308 307 307 307 307 307 306 306 306 306 305 306 306 306
321 320 319 319 317 316 315 313 313 313 313 311 310 307 306 306 306 305 305 307 306 306 306 305 303 301 300 300 300 299 298 298 298 299 300 301 303 304 304 303 303 302 303 305 306 306 307 309 311 314 316 314 320 321 320 319 319 320 320 318 318 317 316 315 313 311 311 310 309 308 308 308 307 307 307 306 306 305 305 305 305 305 306 306 306
323 322 321 319 318 316 315 314 313 312 311 310 308 306 304 304 305 305 303 303 304 305 304 302 301 299 298 298 298 297 297 297 297 298 299 300 300 301 303 303 302 302 302 302 302 303 304 306 306 312 314 314 314 319 320 320 320 320 320 320 319 318 316 316 314 312 311 310 309 308 308 308 307 307 306 305 304 305 305 305 305 306 306 306 306
324 323 322 318 319 319 317 314 312 312 311 310 310 309 307 306 306 305 304 303 302 301 301 302 299 298 296 297 298 297 295 296 296 297 298 299 299 299 300 301 302 301 302 300 299 300 301 302 304 305 308 313 313 312 315 317 316 321 319 319 319 319 317 316 316 314 312 311 310 308 307 307 307 306 305 304 304 304 305 305 305 306 306 306 305
325 325 323 322 320 319 317 315 311 310 311 312 310 308 308 306 305 303 303 302 302 300 300 301 299 301 301 298 299 299 298 295 294 295 296 298 298 299 299 299 301 303 302 300 299 299 299 299 300 300 303 306 309 310 311 311 312 316 320 319 319 319 318 317 317 315 313 312 310 309 308 307 306 306 305 304 305 305 305 306 305 305 305 305 305
328 325 325 324 322 321 320 318 312 310 310 310 309 309 308 306 304 303 302 302 303 301 299 302 303 303 302 300 299 300 303 297 298 297 297 296 297 297 298 297 298 300 301 300 300 299 298 298 297 298 299 300 304 306 306 305 307 307 315 318 319 320 319 318 318 316 314 312 311 310 309 307 306 306 305 305 305 304 305 304 305 305 305 305 305
332 329 326 326 324 322 322 319 316 314 314 311 309 308 309 308 306 305 305 301 301 300 301 301 304 302 300 299 296 296 299 303 303 303 301 297 296 296 296 296 297 298 298 298 300 300 300 299 296 296 298 300 301 301 301 303 303 302 304 308 312 318 319 319 319 318 316 315 314 311 310 308 307 307 306 306 305 305 305 305 305 304 304 305 304
331 330 326 327 326 325 323 321 318 315 312 310 309 309 309 309 308 305 304 304 302 302 300 300 302 305 307 299 296 295 298 304 298 300 295 295 296 296 297 297 299 296 296 297 298 298 298 298 298 297 297 298 299 300 300 301 302 302 303 301 304 311 317 318 318 318 318 316 315 313 311 309 308 307 306 306 305 305 304 304 304 304 304 304 303
332 331 329 326 328 327 326 323 320 317 313 312 312 312 310 309 308 307 305 305 307 305 300 298 299 301 305 308 310 308 305 298 300 300 293 294 297 296 298 298 298 296 295 296 297 296 295 296 298 297 297 296 296 296 297 299 299 301 301 303 305 309 312 315 317 317 318 317 316 314 313 311 310 308 307 306 305 304 304 303 303 303 304 304 303
329 331 331 329 328 328 326 325 323 321 316 314 313 312 311 309 309 308 307 306 305 303 301 298 297 298 300 303 303 299 300 299 298 298 298 296 291 294 295 296 296 294 295 296 297 297 295 294 295 296 297 295 294 295 296 298 299 299 302 303 307 308 309 311 313 316 316 316 316 314 314 312 310 309 307 305 305 304 303 302 302 303 304 303 303
327 328 329 329 327 328 328 326 325 324 320 317 316 316 314 312 310 310 309 307 305 304 304 303 298 299 300 300 301 302 301 298 298 301 302 299 302 294 293 293 293 293 293 295 297 297 296 295 293 295 295 295 294 295 296 296 297 298 300 305 308 308 308 309 309 310 313 314 315 316 314 313 311 310 308 305 304 303 302 302 302 303 303 304 303
325 326 327 328 326 326 327 327 326 325 319 321 319 318 316 314 311 309 309 309 307 307 307 306 302 303 301 298 300 300 301 299 298 297 295 296 298 302 302 293 291 291 291 293 295 297 297 295 293 292 294 295 295 294 294 295 295 296 298 304 309 310 309 309 308 308 307 308 309 310 312 313 311 310 309 305 303 301 301 302 301 302 302 303 304
322 323 324 325 326 326 325 325 326 326 322 323 322 320 319 317 314 311 309 308 308 306 305 307 306 305 306 305 301 299 297 297 296 297 298 296 296 300 303 303 299 296 292 292 293 294 296 295 293 292 292 294 294 293 293 293 294 294 296 301 306 309 310 310 308 306 305 305 305 304 305 306 308 308 304 303 301 301 301 301 302 301 302 303 304
318 320 321 322 323 324 324 325 326 322 322 323 322 321 321 319 317 314 311 310 310 309 307 306 307 307 306 304 302 300 298 298 300 300 298 296 294 294 297 300 301 300 299 293 293 293 293 293 293 293 293 293 293 292 291 292 293 293 295 298 302 307 308 308 308 305 303 303 301 301 301 299 300 301 300 300 300 300 300 301 301 301 302 303 304
313 315 317 318 320 321 322 323 322 323 323 324 323 323 323 321 318 316 314 312 311 309 308 306 306 306 305 305 304 303 302 302 304 303 299 299 298 298 298 299 299 299 298 292 293 292 292 291 292 292 292 292 292 292 291 292 292 293 293 296 300 304 307 307 308 305 302 301 300 299 299 298 298 297 297 297 298 299 300 300 300 300 302 304 304
309 310 313 316 318 318 319 320 320 321 322 323 323 323 322 321 319 318 317 315 314 312 309 308 307 305 306 306 305 305 304 304 304 302 302 300 298 296 298 300 298 301 299 294 292 292 292 291 292 293 292 291 291 292 292 291 291 292 293 293 297 301 304 306 308 306 303 301 299 298 298 297 296 297 296 296 297 297 299 299 300 301 303 303 303
310 310 312 313 315 316 317 318 319 320 320 321 321 322 322 321 320 318 317 317 317 314 312 310 309 308 307 306 305 304 304 304 304 303 301 300 298 297 298 298 298 298 296 290 292 291 293 290 292 293 292 291 291 293 293 291 290 291 292 291 294 298 300 302 304 305 302 300 298 297 296 295 296 296 296 296 296 297 297 297 298 299 301 302 302
310 310 309 309 311 313 315 316 317 317 318 318 318 319 319 317 315 316 316 316 313 311 311 310 309 308 307 307 306 306 305 304 304 303 303 302 302 302 300 297 298 297 295 294 290 290 298 294 291 292 292 291 292 293 293 291 291 291 291 290 290 295 298 301 301 302 301 299 298 296 296 296 295 295 295 296 297 297 296 296 296 297 299 300 300
309 307 307 307 308 309 310 312 314 315 316 316 317 317 317 317 317 316 315 313 312 311 311 310 309 309 308 308 307 307 307 306 305 304 303 303 302 303 302 300 297 295 297 296 294 294 296 295 292 291 292 291 292 292 291 291 291 291 291 290 288 291 297 300 301 301 301 299 298 296 296 295 295 296 295 296 295 294 294 295 295 296 297 297 298
307 305 306 305 306 307 308 308 309 311 313 314 314 314 315 315 314 314 314 315 312 312 311 309 310 309 308 308 307 307 307 307 306 306 305 304 304 303 302 300 300 296 294 294 297 298 293 294 294 293 291 292 292 292 291 290 291 291 290 290 288 289 295 300 300 299 301 300 298 297 295 295 295 295 295 294 294 294 293 293 293 295 296 296 297
304 304 304 304 304 302 305 306 306 307 309 311 311 311 312 312 312 312 313 313 312 312 312 312 312 311 310 309 308 308 308 308 307 307 306 305 304 303 302 302 301 298 297 295 296 299 296 292 295 294 290 291 292 291 290 290 290 290 290 290 288 288 294 297 298 299 299 299 298 295 295 295 295 294 294 293 293 293 293 293 294 295 296 296 297
302 302 301 301 301 301 302 303 304 304 305 306 307 308 309 309 309 309 310 310 310 309 310 310 310 310 309 308 307 306 307 306 305 305 304 303 303 303 302 301 300 299 298 297 294 298 301 296 290 293 290 290 291 290 289 289 290 290 290 290 288 288 292 294 296 297 297 297 297 295 296 296 295 294 293 293 292 293 293 293 294 294 295 295 295
301 300 300 300 300 300 300 301 301 302 302 303 303 305 306 306 307 307 307 307 307 307 307 307 307 307 307 306 307 307 308 307 306 304 303 302 303 302 301 300 300 299 299 297 295 296 292 291 291 290 290 289 290 288 288 288 289 290 289 289 288 287 290 292 293 295 295 296 296 295 295 295 294 294 293 292 292 293 293 293 293 293 293 293 293
299 298 298 299 299 299 299 299 299 300 301 301 301 302 302 303 304 305 305 305 305 305 305 305 305 306 305 305 306 307 307 304 302 301 301 301 299 300 299 298 297 297 296 295 294 294 294 286 288 287 288 289 287 288 287 286 287 288 288 288 287 286 287 288 290 292 293 294 295 294 294 294 293 293 292 292 292 292 292 292 292 292 291 291 290
296 297 297 298 298 298 298 299 299 299 299 300 301 301 300 300 301 303 303 303 303 303 303 302 303 303 303 302 302 302 302 301 300 299 299 298 297 296 297 297 297 297 296 295 294 294 294 288 286 287 287 287 286 287 286 286 286 287 286 286 286 286 286 287 288 291 293 293 293 293 293 292 292 292 291 291 291 290 291 292 291 290 290 289 288
294 295 296 296 296 296 296 297 298 298 299 299 300 300 300 300 300 301 302 301 301 301 300 301 300 299 299 298 299 300 300 298 297 297 297 297 296 296 296 296 295 295 295 295 295 293 293 294 287 285 285 286 286 285 286 286 286 286 285 285 285 285 286 287 287 288 292 293 293 292 292 292 291 291 291 290 290 290 290 290 289 289 288 287 286
292 293 292 293 293 294 294 295 295 296 296 296 297 298 299 300 300 300 300 300 300 300 300 300 299 298 298 298 298 298 297 297 296 296 295 295 295 295 295 295 295 295 295 294 294 294 294 294 286 286 285 285 286 286 286 285 285 285 285 284 284 283 284 285 286 287 290 292 292 291 291 291 291 290 290 289 289 289 289 289 288 287 286 285 285
292 292 292 292 292 292 293 294 295 295 295 295 296 297 297 298 298 299 299 299 299 299 299 299 296 298 297 297 297 297 296 295 295 295 295 294 295 295 295 295 294 295 294 294 293 293 293 292 288 285 285 286 285 285 285 283 283 283 283 282 283 282 283 284 285 287 290 291 290 290 290 290 290 290 289 289 289 289 288 288 287 285 284 284 284
291 291 291 291 292 292 292 293 293 294 294 295 295 295 296 296 296 297 297 297 297 298 298 298 298 297 297 297 297 296 295 295 295 294 294 294 294 294 294 294 294 294 293 293 292 292 291 291 288 284 284 283 283 283 284 283 282 281 281 282 282 282 282 282 284 285 286 286 286 287 288 288 289 289 289 288 288 288 287 287 285 284 283 283 283
290 290 291 291 291 291 292 292 292 293 293 293 295 295 296 296 296 295 295 295 295 296 296 297 297 297 297 297 297 296 295 295 295 295 295 294 293 293 293 293 293 292 292 291 291 290 290 290 287 285 283 284 283 281 283 283 283 282 280 279 279 281 282 282 281 282 283 284 286 286 286 286 287 286 287 287 287 287 287 286 284 283 282 282 283
290 290 290 290 291 290 291 291 292 292 292 292 293 294 294 295 295 294 294 294 294 295 295 295 295 296 296 296 296 296 296 296 296 296 296 295 294 293 294 293 292 291 291 290 289 289 288 288 286 284 283 282 283 282 282 282 281 280 281 280 279 279 280 282 282 280 282 282 282 283 285 286 285 285 286 286 286 286 285 284 282 281 281 282 282
290 290 290 289 289 290 290 290 290 291 291 292 293 293 293 294 294 293 293 293 293 293 294 294 294 294 295 295 295 295 294 291 292 293 293 293 294 292 292 291 290 290 290 290 289 288 288 287 286 284 282 281 281 280 279 279 279 279 281 282 280 281 281 280 281 282 282 281 281 282 282 283 282 283 282 282 283 284 282 282 281 281 281 282 282
289 289 289 289 289 289 289 290 290 290 291 292 290 291 292 293 293 294 293 293 293 293 293 293 293 294 294 294 294 290 290 290 290 291 292 292 292 293 293 292 290 289 289 288 288 287 287 286 286 283 281 280 280 280 280 280 281 282 281 281 279 280 280 279 279 280 282 282 280 280 280 281 281 280 280 280 281 280 280 280 280 280 281 281 281
288 288 289 289 289 290 289 290 290 290 291 291 290 292 293 294 293 293 292 292 292 292 292 292 292 293 293 293 293 291 290 289 289 290 291 291 292 292 292 292 291 291 289 288 288 287 287 287 286 283 283 281 280 281 281 281 282 281 281 281 280 280 279 277 276 278 281 281 280 279 279 281 281 279 279 279 278 278 279 280 281 280 280 280 280
287 287 287 288 288 289 289 289 289 289 290 290 291 292 293 293 293 292 292 292 292 292 292 292 292 292 292 292 292 292 292 291 291 290 290 290 291 291 291 291 291 291 292 290 288 287 287 286 285 284 283 282 281 281 281 281 281 282 282 282 280 280 279 279 279 277 280 282 280 278 278 280 280 279 277 277 277 277 278 280 280 280 280 279 279
286 286 287 287 287 288 288 288 288 289 289 290 291 292 292 293 293 293 293 292 292 291 292 292 292 292 292 291 291 291 291 288 288 290 290 289 289 289 290 290 290 291 292 292 291 289 288 287 286 285 284 283 281 281 282 282 283 282 282 281 281 281 281 281 280 279 279 282 280 278 277 278 279 278 276 276 276 275 275 279 280 280 279 279 279
286 286 286 286 287 287 287 288 288 288 288 289 291 291 292 292 293 293 292 292 292 292 292 292 292 291 291 291 290 290 289 289 289 289 289 289 289 288 288 288 289 288 289 291 290 289 288 288 287 285 285 284 282 283 284 285 283 282 281 280 282 281 281 281 281 279 280 282 280 278 276 277 278 277 275 274 274 273 275 278 279 279 278 278 278
285 286 286 286 286 286 287 287 287 287 288 289 291 291 292 292 293 293 292 292 292 291 292 291 291 291 291 291 290 290 289 289 288 288 288 288 287 287 286 286 287 287 287 288 288 288 287 287 287 287 286 285 285 285 285 285 284 284 284 283 283 283 280 279 279 279 279 281 280 279 274 275 276 276 275 273 273 272 274 277 278 278 278 278 277
285 285 286 285 285 285 286 286 286 286 287 289 290 290 291 291 292 291 290 290 290 290 290 291 291 291 291 290 289 289 289 288 288 289 289 287 286 286 285 286 285 286 286 286 288 288 287 287 287 286 286 286 287 285 285 285 285 284 283 282 281 279 278 277 274 276 276 277 278 277 273 273 275 275 273 272 272 271 271 273 276 277 277 276 276
284 284 284 285 285 285 285 285 285 285 286 287 288 289 290 291 290 289 288 289 289 289 290 290 290 290 290 289 289 289 288 288 288 290 291 289 286 285 285 285 285 285 285 285 288 289 289 288 289 289 288 288 288 288 288 287 284 284 282 280 279 280 278 274 274 274 274 275 276 277 274 272 272 272 270 270 270 270 270 270 272 275 275 275 274
282 283 283 284 284 284 283 283 284 284 284 285 287 288 289 289 289 288 288 288 287 288 288 289 289 289 289 287 287 288 287 287 289 290 290 288 285 285 285 284 283 283 284 285 286 286 289 289 289 288 288 288 288 288 288 287 286 285 282 279 279 280 278 277 274 274 273 274 274 276 274 271 270 271 269 267 266 268 269 270 270 271 272 272 272
281 282 282 282 282 283 283 283 283 283 283 284 285 286 287 288 288 287 287 287 287 287 288 288 289 288 287 286 286 286 287 287 289 290 290 288 285 285 285 284 283 282 283 284 284 284 285 284 285 285 285 286 286 285 286 286 286 285 284 282 281 281 279 277 275 273 272 273 275 276 272 268 269 269 269 267 267 266 267 269 269 269 270 270 269
Wind_Speed
4 4 3 3 3 3 3 3 2 2 3 2 2 3 2 1 2 2 2 2 2 2 1 2 1 1 1 2 1 1 1 1 1 0 0 0 0 1 2 3 6 7 10 8 11 10 9 7 12 12 9 8 7 7 7 7 8 8 7 7 8 7 7 7 7 7 6 7 7 7 7 7 8 6 6 7 6 8 8 6 8 9 8 7 8
5 4 5 5 3 3 3 3 3 2 3 3 2 2 3 2 2 2 2 2 2 1 1 2 1 1 1 1 1 1 1 1 1 1 0 0 0 1 2 2 3 6 9 9 11 10 8 8 6 9 10 10 10 8 9 6 7 7 6 6 7 8 8 8 7 7 7 6 6 7 7 6 6 6 5 6 7 7 7 6 7 8 5 5 7
4 4 4 5 5 4 3 3 3 3 3 3 2 3 2 2 3 3 3 3 2 1 1 2 1 1 1 1 1 0 1 1 1 1 1 1 1 1 1 3 5 7 9 9 12 10 9 10 8 9 6 4 4 4 4 7 8 9 8 7 7 7 7 7 6 5 5 5 5 5 6 6 7 6 5 5 5 6 6 6 6 6 6 6 7
4 5 5 5 6 6 4 4 3 3 3 3 3 3 3 2 2 2 2 2 2 2 1 2 2 1 1 1 1 1 1 1 1 1 1 2 2 1 1 1 3 8 12 11 14 13 12 13 10 11 11 12 11 12 11 9 7 7 6 9 8 6 7 7 6 7 7 6 6 6 6 5 5 5 5 5 5 5 5 4 4 4 4 5 6
4 5 5 4 6 6 6 4 4 3 3 4 4 3 3 3 2 2 2 2 2 2 1 1 1 1 1 1 1 2 1 1 1 2 2 2 3 3 2 2 2 4 7 11 15 16 14 12 16 12 13 10 11 9 7 5 7 8 10 8 8 8 7 7 8 7 7 6 6 6 6 5 5 5 5 4 4 4 4 3 3 3 2 3 4
4 5 4 4 5 5 6 5 4 4 4 4 4 3 3 3 3 3 3 3 3 2 2 2 1 1 1 1 1 1 1 2 2 2 1 2 3 1 2 2 2 3 4 7 11 14 16 17 16 13 13 14 13 14 11 12 13 9 8 8 8 9 8 7 7 7 7 8 7 5 5 5 5 4 4 4 3 3 3 2 1 2 2 2 4
5 5 5 4 5 5 5 5 4 4 4 4 4 3 3 4 4 4 2 2 2 2 2 2 2 3 2 1 2 1 1 2 2 3 3 3 3 2 1 2 4 4 3 2 8 10 14 15 16 16 15 15 13 14 16 14 11 12 11 13 9 9 9 9 8 8 7 6 6 6 5 4 4 5 3 2 2 2 2 1 1 2 2 1 3
6 5 5 5 6 5 5 4 6 5 4 4 5 6 5 4 4 5 5 5 4 4 3 3 2 3 2 2 2 1 2 3 3 3 2 3 3 2 2 2 3 4 4 3 4 7 10 13 13 13 14 14 15 17 15 15 14 13 15 13 11 12 11 10 10 10 8 7 7 7 6 5 4 4 4 3 2 1 1 0 1 2 3 3 4
8 7 5 6 6 5 6 7 6 6 6 5 4 3 5 5 5 5 5 4 5 5 5 4 4 4 3 3 2 2 3 4 3 2 2 4 4 3 3 3 3 4 4 4 4 4 8 10 10 10 11 14 15 18 15 13 14 14 15 15 13 13 11 11 10 10 9 9 8 7 6 5 5 4 3 3 3 2 2 3 2 3 4 4 5
10 8 7 6 6 6 4 6 7 7 7 7 8 8 7 7 7 7 8 7 7 8 8 6 5 5 5 5 4 3 4 4 3 3 4 5 4 5 4 3 3 3 4 4 5 5 5 7 10 11 12 12 9 15 15 15 15 14 21 17 13 13 14 12 11 11 9 9 8 7 7 6 4 3 4 5 4 4 3 4 4 4 5 5 5
12 11 10 8 8 7 6 6 4 3 4 6 4 4 5 6 7 5 2 3 3 2 2 3 3 3 4 6 5 7 5 3 2 3 5 5 4 4 3 4 3 3 4 4 4 3 4 5 5 5 7 13 12 15 18 17 16 17 19 16 16 16 16 14 13 12 11 9 8 8 8 7 5 5 4 5 5 5 5 5 5 6 6 6 6
7 6 6 7 7 6 7 6 7 7 7 7 7 6 8 7 8 6 6 4 4 3 2 3 0 1 3 4 4 4 5 3 4 5 5 5 5 4 5 4 5 4 5 4 3 4 4 4 5 6 6 9 13 14 17 16 16 19 19 18 18 18 16 15 15 14 13 11 11 10 9 8 7 6 5 6 6 6 5 5 6 6 7 7 7
13 14 11 10 10 8 7 7 8 8 9 9 7 6 7 7 5 4 6 6 5 2 3 3 2 3 2 4 6 4 6 5 6 6 7 6 5 6 4 5 5 6 6 4 4 4 4 4 4 5 6 7 9 13 14 14 10 13 19 20 20 20 18 17 18 17 17 15 13 12 10 9 9 7 6 6 6 6 6 7 6 6 7 8 8
11 12 12 11 9 8 7 8 7 7 9 12 10 9 9 7 6 5 4 6 5 5 3 6 2 8 6 4 4 5 9 6 7 8 8 7 6 6 6 7 7 7 4 5 5 5 5 4 4 4 5 6 7 8 8 10 9 11 16 20 21 21 20 20 18 18 17 16 14 13 12 11 10 8 7 7 7 6 6 8 7 7 8 8 9
6 7 8 10 12 12 12 11 10 9 7 7 8 9 9 10 10 8 5 5 6 5 8 10 9 4 2 3 5 3 4 5 7 11 9 7 6 7 8 7 9 6 5 6 6 6 5 4 6 7 7 8 6 6 7 8 10 12 12 13 18 23 23 22 20 19 17 18 18 16 14 13 12 10 9 8 7 7 7 7 8 8 8 9 10
12 13 12 11 11 11 10 9 11 12 13 11 10 10 8 8 9 10 7 5 5 8 9 9 7 7 5 8 2 0 7 8 9 9 12 11 9 10 6 9 7 7 6 8 8 6 6 5 8 8 8 7 7 6 5 5 7 10 13 12 10 12 21 23 22 21 19 20 19 18 17 16 14 12 11 10 9 9 9 9 9 9 9 10 11
5 6 8 10 9 8 7 7 8 7 8 8 8 12 11 10 11 11 11 11 8 7 7 9 10 10 8 5 0 3 8 3 2 5 5 8 10 11 10 12 14 8 8 10 6 6 6 6 9 9 9 8 6 6 6 6 7 7 9 10 10 10 11 19 23 23 22 21 22 18 18 17 16 14 13 12 10 10 10 9 8 9 9 10 11
8 8 8 8 9 11 13 13 12 11 11 10 9 7 7 8 10 10 11 11 11 10 6 5 9 11 12 9 7 8 3 2 3 7 2 5 5 8 12 12 11 12 9 9 9 8 9 8 8 8 9 9 8 7 7 7 8 8 8 8 10 10 11 12 18 23 24 23 23 20 19 18 16 17 14 13 12 10 9 8 9 9 9 11 12
8 8 8 9 10 8 7 7 7 8 10 11 11 11 11 12 10 10 11 12 11 9 9 5 4 8 9 11 12 3 0 4 9 2 10 2 5 7 8 10 7 11 13 11 11 9 7 8 9 8 7 7 7 8 8 9 8 6 7 9 13 10 8 7 11 19 24 23 21 20 20 20 18 17 16 13 12 11 9 8 8 8 9 11 12
8 8 8 7 6 7 8 10 11 12 10 10 10 10 8 8 12 15 13 10 11 11 10 8 11 9 12 15 15 12 8 6 4 9 10 11 9 4 5 9 7 10 12 10 12 11 10 8 10 11 9 10 8 8 9 7 7 7 8 13 14 12 10 10 8 7 13 23 24 23 22 21 18 18 15 14 12 9 9 7 7 8 9 11 12
8 9 9 9 7 7 7 8 8 9 8 10 11 12 15 15 13 11 12 13 11 13 11 10 10 12 7 11 10 12 11 10 7 4 10 9 16 13 11 3 5 7 7 13 10 10 10 9 10 10 10 10 10 11 9 9 9 8 8 13 15 15 13 11 8 6 3 2 6 1 16 23 20 17 18 13 9 9 7 6 7 8 9 11 13
8 8 8 9 9 8 7 7 7 7 8 10 9 8 7 8 10 11 12 13 11 12 13 11 10 10 11 9 9 9 7 8 10 11 12 13 16 15 9 11 11 9 12 13 13 11 9 10 10 11 10 8 9 10 9 9 9 8 9 13 15 15 15 13 11 8 7 7 8 10 12 8 9 10 7 7 8 7 6 7 7 7 9 12 13
7 7 8 8 9 10 10 10 9 7 7 6 7 8 7 6 7 10 13 16 13 13 16 15 13 13 13 11 12 12 12 13 12 12 13 10 10 15 14 14 15 14 8 9 9 9 11 8 9 9 9 9 8 7 7 9 8 9 10 12 12 13 14 14 12 10 9 9 10 11 12 12 10 9 8 7 6 5 5 5 6 6 9 12 13
6 6 7 8 8 9 10 10 9 8 9 7 7 7 8 9 9 9 9 11 10 9 10 12 13 10 12 10 8 10 11 14 12 8 11 14 11 15 11 6 8 9 5 3 4 8 9 12 13 13 12 9 8 9 8 9 11 13 13 14 15 16 16 16 16 15 13 12 11 11 12 12 11 9 7 5 4 3 3 5 5 6 9 13 13
6 8 9 9 8 8 9 8 8 9 10 9 9 9 7 5 6 9 11 13 12 13 12 14 13 13 13 11 10 9 11 11 10 9 8 7 8 12 13 7 13 14 6 4 7 5 8 11 11 12 11 11 11 12 10 11 11 12 14 11 15 14 17 18 20 18 17 15 14 12 12 11 10 8 7 6 4 3 2 3 4 6 9 12 13
8 9 9 9 9 10 9 10 9 9 9 10 10 9 9 10 10 8 8 9 9 13 15 15 13 15 11 10 11 10 12 9 11 9 10 8 10 12 13 10 10 15 5 4 2 3 6 10 9 10 9 11 11 8 9 11 9 12 17 12 14 17 17 18 20 19 18 18 16 14 12 10 9 9 7 7 6 4 2 1 3 6 10 13 13
8 8 7 7 9 9 10 11 10 10 10 10 9 9 9 7 7 9 9 8 8 9 10 11 12 14 14 14 11 12 13 12 12 13 12 14 15 14 12 14 13 11 12 8 5 11 14 5 8 10 10 7 8 9 9 10 11 14 17 13 11 18 18 19 20 21 18 17 16 15 14 12 10 9 9 8 7 5 3 2 2 5 10 12 13
7 7 7 7 8 8 8 10 10 10 10 10 10 9 9 9 9 9 9 6 8 10 11 10 14 13 13 13 12 13 11 11 10 11 10 10 11 10 10 10 12 17 10 11 9 13 10 11 4 10 9 10 7 8 9 10 10 13 17 11 10 12 18 19 21 21 19 17 17 18 16 13 12 11 10 8 7 6 4 2 2 6 9 12 13
7 6 7 7 8 8 8 9 9 10 10 11 11 10 10 10 9 10 12 9 9 10 9 10 11 11 10 12 11 11 11 10 9 9 9 9 9 11 11 12 12 13 14 11 16 10 6 13 10 7 11 8 9 7 9 11 10 13 12 11 11 10 16 19 21 21 20 18 16 17 15 14 13 12 11 10 8 6 4 2 3 7 10 12 13
7 7 6 8 8 8 8 9 9 9 10 10 10 9 9 9 10 11 11 10 11 10 10 11 11 10 10 10 11 11 11 10 11 10 11 11 11 12 11 10 10 13 13 14 19 7 5 6 8 6 7 10 7 7 8 10 11 14 11 11 11 11 16 19 20 19 18 17 17 16 16 15 14 13 11 10 8 5 2 2 6 9 11 12 12
6 7 7 8 8 8 8 9 8 9 9 9 9 9 9 9 9 10 10 10 10 12 12 11 12 11 13 13 11 11 9 8 7 7 7 8 10 10 10 9 11 12 13 13 16 8 6 7 7 5 5 7 6 5 7 8 10 14 10 9 10 12 16 15 18 18 17 18 17 17 18 19 16 14 12 9 6 4 3 5 7 9 10 10 8
7 7 7 8 8 8 8 8 8 8 9 9 8 9 9 9 10 9 10 9 11 12 11 9 9 9 11 12 12 11 10 9 9 8 9 10 10 10 10 11 12 12 12 12 15 19 2 2 5 6 6 6 7 8 7 6 7 14 10 9 9 11 12 10 16 16 17 17 19 19 21 18 16 14 11 9 6 5 4 5 6 8 7 6 6
7 7 7 8 8 8 8 8 9 9 9 9 8 8 9 10 10 10 10 10 12 11 10 11 10 11 11 12 12 13 11 11 9 9 10 11 10 11 9 10 10 9 10 12 15 18 8 2 2 4 5 7 6 8 8 7 6 8 8 7 8 9 9 8 10 16 17 19 21 20 18 17 15 13 11 9 7 6 4 5 6 5 5 4 2
6 7 8 7 7 7 8 8 9 9 9 10 9 8 9 10 11 10 10 10 11 12 10 12 10 10 10 12 12 11 10 11 10 11 10 9 9 9 10 10 11 12 12 12 14 13 17 2 2 3 4 6 6 7 10 9 8 7 9 7 7 7 8 7 8 8 19 22 20 18 17 16 14 12 11 10 8 6 6 6 5 5 4 2 3
6 6 7 7 7 7 8 8 8 9 9 9 8 8 10 10 12 11 11 11 12 12 12 13 11 9 10 11 12 10 8 9 9 9 8 9 8 10 11 9 11 11 10 13 12 13 14 11 6 5 5 6 7 7 8 7 7 8 9 8 8 6 5 7 7 7 18 17 18 17 16 15 13 13 12 11 9 8 6 6 5 5 5 4 4
7 7 6 7 7 7 8 8 8 9 8 8 8 8 10 11 11 12 11 11 12 12 13 12 11 11 12 12 12 10 9 11 10 9 8 8 8 8 10 10 11 12 12 11 14 13 12 12 4 7 6 7 4 6 7 7 8 7 7 6 7 6 4 4 7 7 13 18 17 16 15 15 14 14 13 12 9 8 8 8 8 8 6 5 4
7 6 6 6 7 7 8 8 8 8 8 8 9 9 10 10 11 12 11 11 12 12 12 12 11 11 11 12 12 9 10 11 11 10 8 10 9 9 11 10 11 11 10 10 12 11 12 12 4 2 5 4 2 6 9 10 8 6 5 5 6 7 6 4 4 7 15 19 17 17 16 16 15 14 13 11 10 10 10 9 9 8 7 5 3
7 6 7 6 6 8 7 8 8 9 8 8 9 9 9 9 10 11 11 11 12 12 12 11 11 11 12 12 11 10 11 12 12 10 9 10 9 11 12 11 10 10 11 10 10 10 11 11 7 4 5 6 4 4 8 8 9 8 8 6 5 6 8 8 5 5 4 6 6 8 11 12 14 15 14 12 11 11 10 10 9 8 7 4 2
7 7 7 7 7 7 8 8 8 9 9 8 9 10 10 10 11 11 11 11 12 11 12 12 11 11 11 11 12 11 12 12 12 11 10 10 10 11 11 11 11 10 10 10 9 10 10 10 5 6 6 5 5 7 6 5 5 8 12 10 9 6 6 10 8 4 6 7 8 11 10 10 12 9 11 12 12 11 10 10 9 8 6 3 2
8 7 8 8 8 7 8 8 8 7 8 8 9 9 10 10 10 11 10 11 11 11 11 11 11 11 11 12 12 12 12 12 11 11 11 10 9 11 11 10 10 10 10 9 9 9 9 9 9 7 6 6 4 3 6 7 7 6 8 12 12 11 9 6 7 9 6 8 8 8 10 11 10 11 13 11 11 10 11 9 9 7 4 1 2
8 8 8 7 9 9 8 7 8 7 7 8 7 8 9 10 9 10 11 11 12 12 11 11 11 11 11 11 11 11 12 14 16 14 12 11 9 9 9 8 10 10 10 8 8 8 8 8 6 6 7 7 7 10 11 11 12 12 10 9 9 7 7 7 6 8 9 9 7 8 8 8 9 7 5 5 6 10 9 8 6 5 2 3 4
9 9 9 9 8 9 10 10 8 8 8 7 9 13 12 11 10 10 10 11 10 11 11 12 11 11 11 11 12 16 16 16 16 16 16 15 16 13 11 9 10 9 10 9 9 9 9 9 10 9 9 10 10 11 11 10 10 10 11 11 10 9 7 6 5 4 7 9 9 8 6 4 5 6 6 6 5 6 4 4 3 3 2 4 4
9 9 8 9 9 9 10 10 10 9 9 8 13 13 14 16 13 11 11 11 10 11 11 12 13 11 10 11 10 12 14 14 13 16 16 17 18 19 20 17 13 12 10 10 9 9 10 10 8 9 10 11 9 9 10 12 11 13 13 12 11 10 11 12 9 3 4 9 8 8 7 5 6 7 6 6 5 5 4 3 4 4 5 5 4
8 7 8 8 9 9 9 9 9 9 9 11 14 15 16 16 15 12 11 11 11 10 10 11 11 11 11 10 10 9 9 10 10 11 14 17 17 18 18 19 18 18 16 12 10 8 9 8 9 12 12 12 10 9 9 11 12 11 11 11 13 11 10 10 9 8 8 9 9 8 7 5 4 6 6 5 5 4 3 3 4 5 5 5 5
7 7 8 8 8 8 8 10 10 9 9 11 13 16 16 16 17 15 11 11 11 11 11 11 11 11 10 10 10 8 8 11 10 10 9 10 12 16 17 18 18 18 18 18 16 12 10 11 12 11 11 10 12 11 12 14 14 13 12 9 10 11 9 10 7 7 9 9 7 8 8 6 6 7 6 5 5 3 2 2 5 5 6 6 6
7 8 6 7 8 8 8 9 10 9 9 11 15 15 16 17 17 15 12 12 12 12 12 11 10 10 10 10 10 9 7 8 8 9 8 9 8 9 9 10 10 13 17 19 17 17 14 11 10 12 10 12 13 14 14 14 16 15 12 12 13 10 11 8 7 7 10 8 9 9 6 6 5 6 6 5 4 3 2 3 5 6 6 7 8
8 9 9 9 9 6 8 8 9 10 8 11 13 15 15 17 16 14 11 11 11 11 11 10 10 11 10 10 10 10 8 7 7 9 9 9 8 8 8 9 9 8 9 10 10 9 10 10 9 10 11 12 12 13 14 14 16 14 15 15 13 10 9 10 9 8 8 5 7 6 5 6 3 6 5 5 4 3 2 3 6 6 7 8 8
8 7 8 6 8 10 8 8 10 12 9 9 14 14 15 16 18 10 9 10 11 11 11 10 10 9 9 9 9 9 9 8 8 13 13 9 7 9 9 8 7 6 8 9 12 12 10 8 7 8 9 11 12 13 13 12 8 8 9 9 10 11 12 10 7 6 7 1 0 3 5 4 3 5 5 3 3 4 3 2 5 7 8 8 8
11 10 10 10 9 10 12 10 9 12 11 9 12 17 17 18 15 9 8 9 9 10 11 10 9 9 9 8 8 9 9 8 10 15 16 12 8 9 8 8 7 7 7 5 11 13 10 9 11 12 12 14 16 19 21 18 13 13 12 11 10 11 10 9 6 6 5 3 1 3 4 5 2 3 4 2 2 3 4 3 3 6 8 8 8
12 11 10 12 11 8 9 12 9 10 13 12 12 18 17 16 14 10 9 9 10 9 9 10 8 8 9 12 11 9 9 9 13 16 17 12 8 8 8 8 9 9 8 5 5 6 10 10 11 13 15 18 20 22 22 20 21 15 13 13 13 12 11 11 9 6 4 3 2 3 5 3 4 2 3 2 2 1 3 3 3 4 6 6 7
10 9 9 10 11 10 8 10 12 11 12 13 12 15 17 15 12 8 8 8 10 9 8 9 8 7 8 8 12 12 10 11 16 16 16 12 9 9 9 9 9 10 8 8 8 8 8 8 8 8 10 14 13 11 14 23 20 14 8 11 11 11 12 10 8 8 5 2 4 4 5 3 5 2 3 3 1 1 1 1 2 2 2 2 2
Wind_Direction
168 165 155 159 146 145 147 133 125 127 135 124 131 135 120 117 118 119 102 107 108 101 96 86 87 78 118 128 132 128 139 154 149 4 322 104 313 347 21 136 168 180 184 189 180 174 172 190 175 171 169 167 169 163 158 156 154 155 153 150 142 145 139 144 140 127 133 139 133 132 129 125 123 108 109 97 94 94 91 73 79 83 79 85 62
168 159 172 170 157 149 153 150 147 148 152 149 157 145 146 147 130 125 129 131 131 126 146 129 108 119 123 136 148 159 171 178 181 173 212 251 228 215 5 314 255 211 197 194 184 187 188 184 202 207 188 179 184 179 161 167 162 164 162 161 158 157 157 153 150 151 152 140 140 135 140 135 122 110 99 98 98 110 102 78 81 96 85 49 83
170 166 175 174 176 171 173 157 160 162 167 145 151 154 150 157 159 156 161 154 146 142 171 145 144 130 98 144 111 215 198 225 208 208 228 243 226 211 279 320 240 224 209 220 183 185 183 181 192 195 208 217 182 192 196 181 164 174 171 181 175 169 164 156 155 149 148 148 146 143 134 136 136 118 108 111 98 101 101 80 79 84 75 53 65
172 170 180 177 182 186 181 179 173 168 171 155 148 154 146 132 127 133 137 148 138 149 157 171 157 135 149 160 175 203 226 244 233 233 252 248 222 204 193 262 281 219 206 223 187 189 186 181 194 192 190 188 186 191 194 197 199 189 176 187 184 177 178 167 166 168 169 173 168 160 155 150 136 132 119 114 117 110 107 98 90 87 66 39 68
179 178 178 177 186 187 193 192 179 172 165 153 140 140 141 139 130 142 140 144 147 147 133 169 166 157 188 189 223 201 216 246 242 248 254 263 252 176 216 223 263 271 271 239 198 200 190 189 196 200 203 207 213 215 208 223 217 197 197 195 186 193 190 190 185 181 182 181 186 178 169 166 157 162 157 129 117 121 109 93 80 85 94 38 33
181 182 183 180 181 189 194 195 185 173 161 157 161 156 154 155 155 165 171 178 180 170 176 178 166 175 215 227 243 240 232 231 241 250 254 255 269 224 207 216 255 283 261 290 240 195 186 190 202 211 223 209 213 203 213 205 202 213 202 209 201 204 201 194 188 197 202 201 188 190 188 184 184 164 165 168 157 127 124 99 85 55 66 24 358
193 184 188 184 181 189 197 198 177 172 171 175 159 158 159 173 170 178 163 186 180 179 200 192 175 200 216 220 227 235 250 238 236 247 243 240 255 253 236 242 227 243 285 264 291 228 197 193 193 203 210 214 224 229 206 209 231 216 198 214 209 208 210 207 207 212 212 209 201 199 200 202 204 201 180 154 128 136 161 198 285 331 20 23 352
194 193 190 192 189 192 199 179 180 179 183 168 171 172 175 171 194 183 177 196 182 188 192 186 189 206 223 230 230 241 244 243 234 234 253 263 247 257 237 246 263 247 216 241 264 289 243 206 200 197 208 224 213 228 228 223 215 219 201 225 220 211 216 212 212 216 211 214 214 204 208 213 216 224 224 210 218 239 303 224 293 324 328 338 343
187 191 197 195 198 196 191 185 179 184 178 178 207 208 169 174 187 207 211 183 192 191 190 190 184 194 197 224 219 216 239 239 233 238 249 249 251 246 237 240 239 263 245 232 217 251 258 226 213 203 200 215 234 236 235 233 232 218 214 202 213 215 218 217 219 222 218 218 214 217 219 218 220 233 245 244 255 259 290 295 294 315 322 319 323
193 187 198 205 210 211 205 185 177 182 183 179 197 191 195 190 189 195 195 185 190 194 199 195 186 179 191 205 205 210 228 227 221 229 237 244 242 238 237 232 233 238 261 245 215 219 264 255 237 211 195 202 224 230 225 227 231 224 203 218 214 218 223 220 217 224 220 225 220 227 229 226 225 233 252 256 258 268 289 293 298 302 305 309 316
190 191 196 201 202 204 194 181 183 208 203 198 208 206 205 207 208 198 220 277 304 253 229 190 207 207 211 210 197 212 216 216 224 232 236 235 240 247 250 245 235 231 243 252 259 236 234 262 250 236 205 192 201 221 225 225 229 231 234 225 221 226 227 219 206 220 222 218 221 229 231 232 230 234 248 263 268 274 278 291 296 300 302 306 310
200 202 215 219 220 213 208 181 176 180 188 203 202 189 199 204 222 199 178 210 231 227 167 158 108 296 288 288 270 287 268 245 234 240 246 237 233 232 233 227 229 228 230 234 239 249 248 247 269 258 204 201 202 216 222 223 232 231 238 230 224 222 224 220 209 205 214 215 221 225 225 230 230 228 236 251 267 273 277 280 288 295 298 302 308
196 194 195 202 212 208 202 189 184 182 190 202 205 213 204 204 215 219 203 203 213 141 112 126 138 274 228 261 267 233 253 245 240 242 240 235 230 229 230 238 234 227 225 223 228 227 236 243 249 268 269 200 197 203 211 211 225 236 231 231 234 230 226 218 218 213 207 209 215 220 223 232 233 231 231 237 253 265 275 280 287 295 303 305 309
199 198 201 192 199 207 205 205 194 198 198 208 194 194 195 195 194 203 206 203 205 145 151 128 217 229 244 274 265 240 239 231 232 241 237 233 229 230 226 228 231 228 225 226 230 221 220 217 222 245 265 266 208 198 206 215 218 228 232 233 233 231 230 221 219 210 205 195 208 217 222 226 234 242 239 242 246 256 271 281 288 294 297 299 301
208 220 213 209 208 207 210 200 189 188 200 210 202 197 189 188 187 195 182 205 203 165 174 189 221 188 102 9 268 289 208 231 228 238 225 218 225 231 228 231 232 224 227 231 226 214 217 220 222 211 231 248 259 225 212 207 210 215 230 238 230 231 236 231 228 219 198 197 194 207 216 220 225 231 244 248 250 261 266 273 282 288 294 301 294
202 199 206 211 213 212 214 208 205 203 205 200 198 207 198 197 192 201 186 189 205 213 197 198 203 137 231 211 229 129 289 231 233 233 230 225 216 230 218 229 230 220 228 238 231 215 220 211 209 226 233 232 237 230 221 225 232 230 225 226 235 243 239 234 232 225 217 206 203 199 209 216 217 220 231 241 246 250 261 272 281 289 295 291 291
227 218 214 216 210 208 206 211 216 213 212 207 190 200 203 204 203 199 197 208 206 216 200 197 210 210 206 102 166 240 229 272 61 254 139 202 218 223 225 230 232 217 219 236 234 227 217 213 217 218 225 228 223 242 232 211 215 220 230 226 227 234 242 239 232 233 225 206 211 205 209 206 214 221 224 234 241 248 258 273 282 287 290 291 293
216 214 209 217 222 216 208 199 196 193 196 208 218 216 208 205 201 198 207 216 229 216 193 186 217 222 238 244 252 265 240 202 116 270 73 230 233 228 229 227 225 225 222 233 228 224 207 223 214 222 211 201 197 201 227 228 217 214 208 212 216 223 230 238 236 235 239 218 218 216 210 206 208 216 222 226 235 247 258 265 276 286 291 290 291
228 225 222 214 219 224 228 225 216 209 202 202 204 204 205 206 199 203 213 212 214 226 211 180 199 243 234 242 256 248 224 144 230 340 285 180 229 225 226 232 216 225 234 231 228 223 215 216 220 222 217 208 212 221 224 227 226 224 206 205 212 206 212 220 242 238 238 244 227 210 214 209 214 211 218 225 231 239 248 262 274 283 289 289 288
231 231 232 231 227 229 219 213 213 214 204 208 212 211 209 207 202 205 208 203 199 211 216 195 189 218 213 231 236 238 218 259 235 237 264 283 257 226 237 238 204 224 229 237 238 224 226 209 221 228 225 221 215 217 219 218 223 223 224 213 209 200 197 208 211 238 241 239 249 215 214 219 210 206 217 226 232 238 247 254 268 280 281 283 290
229 233 235 238 232 229 226 224 218 220 213 223 220 207 204 205 205 206 209 213 211 215 218 211 200 221 180 223 231 237 236 234 245 210 247 254 267 249 248 178 247 226 224 231 238 236 224 223 224 229 226 222 209 217 211 211 213 215 218 214 213 206 204 200 200 195 195 138 62 334 218 221 213 215 222 219 225 234 236 252 261 269 282 284 287
234 237 239 236 241 242 242 240 240 230 215 218 220 222 217 212 204 201 205 211 211 213 218 227 222 229 223 229 221 233 243 248 236 238 246 239 255 263 246 252 252 230 222 234 232 232 224 225 224 222 220 221 213 212 212 212 214 215 217 216 214 208 204 203 192 159 140 112 101 102 90 105 177 205 201 195 216 221 234 250 264 279 283 289 293
236 238 238 240 240 240 243 246 246 247 248 244 235 231 230 227 224 216 214 214 216 214 219 222 220 223 223 220 217 210 211 222 232 229 232 238 248 262 260 255 258 269 221 211 214 220 223 214 223 220 214 217 218 207 202 215 206 209 208 215 219 212 206 206 193 168 152 139 134 121 117 119 132 149 161 182 200 223 242 257 271 283 289 287 293
241 243 239 235 238 240 239 243 245 247 247 247 244 230 223 209 201 202 215 223 230 228 230 231 230 232 230 224 224 216 217 229 236 222 220 238 232 259 261 264 265 241 246 231 222 221 209 221 225 229 226 218 211 213 210 209 212 195 200 207 211 211 205 203 198 174 166 158 147 140 137 138 135 141 155 172 192 213 239 265 284 295 294 298 298
236 235 238 234 236 240 240 240 242 241 248 251 254 254 253 242 229 219 212 210 211 214 219 225 221 224 230 224 226 227 232 235 236 226 223 218 223 253 260 240 265 273 238 189 234 216 221 225 223 224 222 217 219 217 210 211 216 196 191 205 207 212 212 204 205 193 172 162 150 146 143 141 148 150 157 161 168 190 248 286 308 306 298 293 301
229 228 229 232 232 235 237 240 242 246 247 248 250 252 253 254 252 245 238 235 225 218 221 222 220 227 230 232 228 227 236 233 236 234 232 225 236 238 265 256 236 268 248 229 192 220 228 224 213 221 209 218 218 204 205 212 207 193 196 198 204 208 211 212 206 198 181 163 159 156 150 154 161 159 155 165 177 178 161 357 332 315 293 295 301
239 242 234 227 233 235 235 236 236 236 237 242 245 244 242 244 241 244 240 228 226 225 232 229 229 227 220 224 229 231 233 228 222 227 222 228 234 241 239 260 267 250 257 233 219 219 245 222 206 216 213 206 205 201 198 206 205 194 197 199 205 202 205 211 205 200 183 166 160 159 159 158 160 161 167 178 175 144 107 62 338 293 288 293 298
247 242 239 225 233 235 236 237 238 238 236 236 239 241 240 242 243 240 241 215 221 220 225 222 231 232 230 229 229 236 233 233 227 232 231 234 238 243 241 245 259 275 261 262 231 250 218 237 199 214 211 206 200 201 203 199 207 192 195 200 201 203 202 203 201 196 178 175 169 163 161 166 175 167 173 152 127 105 85 54 320 287 286 287 291
255 242 247 234 236 234 236 239 241 240 241 239 237 235 234 237 240 242 246 241 234 232 226 224 230 225 229 228 229 238 237 235 233 230 230 229 232 237 231 234 237 250 274 271 262 249 190 201 235 215 204 199 204 191 200 209 200 187 198 199 201 202 199 194 195 198 186 189 166 157 165 173 172 169 148 126 121 114 125 164 253 271 277 281 285
252 256 241 245 243 237 239 242 241 241 241 243 241 243 242 242 240 240 240 235 236 238 233 233 232 222 229 227 228 237 236 233 234 232 230 231 232 232 231 232 224 237 249 264 274 218 226 200 223 222 184 208 191 185 203 208 193 190 196 197 197 199 196 189 192 193 184 183 175 170 172 167 157 138 124 117 112 119 148 232 257 268 277 279 286
255 252 248 249 247 245 241 247 247 246 246 246 244 246 242 246 243 247 245 241 243 244 241 238 244 241 242 240 232 236 229 232 235 238 238 236 237 235 235 226 228 229 242 251 266 273 172 221 226 230 177 204 180 178 199 204 196 193 195 195 195 192 191 187 188 189 184 187 186 182 165 167 150 131 125 122 125 146 198 236 258 272 275 282 290
257 256 254 252 249 247 244 247 251 252 251 249 245 246 246 245 247 247 246 240 244 245 246 237 238 233 236 238 232 234 234 234 237 236 237 234 234 234 229 225 227 222 231 242 248 263 156 195 183 205 175 164 177 185 192 197 193 191 195 190 187 185 189 186 186 182 183 184 185 179 163 147 133 133 130 133 153 176 199 235 258 272 276 273 286
270 264 258 255 255 251 249 245 246 247 246 249 242 244 245 249 249 249 253 244 246 249 246 247 239 242 244 246 244 240 238 236 234 233 230 231 226 230 224 228 230 220 219 233 246 261 256 120 117 191 154 146 177 185 186 181 178 189 189 185 172 181 191 182 181 176 183 186 169 153 137 132 130 130 138 153 163 171 199 224 238 244 249 279 324
282 274 269 269 263 259 256 253 251 248 249 250 245 237 242 246 249 245 250 247 249 253 248 250 242 240 243 245 245 242 238 237 231 230 224 222 219 225 231 225 227 221 208 221 240 248 262 154 167 80 154 177 180 180 183 173 180 173 181 176 174 178 181 170 164 160 145 146 146 138 134 131 133 141 154 154 159 166 190 205 211 224 237 149 78
283 267 273 273 270 267 263 259 256 256 251 251 247 240 244 246 251 251 243 243 244 246 244 245 242 238 241 242 245 240 237 237 233 234 225 228 218 224 228 221 232 229 217 219 231 245 253 252 162 170 178 182 187 180 176 175 170 170 169 168 162 149 151 153 139 134 140 139 139 138 135 140 149 154 148 146 149 160 171 190 185 163 130 96 62
288 281 269 271 269 264 263 264 260 261 262 257 254 246 247 248 251 252 249 245 247 247 248 248 243 236 237 240 241 235 234 239 238 233 228 225 224 229 232 231 227 229 223 216 222 233 245 253 187 186 172 166 180 154 161 152 157 161 160 137 128 127 104 127 135 136 143 143 141 143 147 148 149 145 144 144 149 159 166 167 153 125 101 84 55
287 289 283 269 269 264 264 265 267 262 256 257 256 255 252 252 256 258 256 253 250 249 249 248 244 238 239 238 243 232 229 236 237 232 226 225 226 228 235 230 227 229 226 222 225 225 237 243 220 155 150 154 109 152 158 151 144 124 116 121 129 126 119 106 104 138 144 146 150 149 148 148 147 148 148 149 155 159 159 157 142 111 95 76 55
300 289 287 284 270 273 265 268 267 269 268 262 258 258 258 257 255 257 258 257 257 255 254 250 246 240 240 241 239 232 228 230 235 229 225 231 230 235 235 232 230 228 227 226 223 224 227 239 203 153 169 162 151 160 170 158 144 135 131 117 106 122 128 127 128 127 114 129 129 142 144 147 151 154 156 158 157 159 161 156 126 105 88 67 33
310 309 300 290 280 271 274 271 269 268 268 262 262 262 261 259 258 258 259 257 257 256 254 253 249 245 243 243 242 234 233 232 234 230 224 230 232 238 232 233 231 227 228 224 218 218 220 223 204 180 154 177 158 155 160 134 138 150 146 133 138 147 141 140 135 122 125 127 139 146 149 153 154 149 156 158 161 163 162 152 117 98 83 60 30
323 314 309 304 294 281 278 274 270 268 267 266 262 263 262 262 264 264 262 262 261 259 258 254 250 247 245 243 242 240 237 236 234 236 227 234 229 236 231 227 231 225 227 222 216 213 214 212 199 183 176 151 145 99 126 140 136 149 167 157 151 153 154 150 150 145 148 142 144 149 151 143 142 150 155 158 162 162 149 129 110 100 87 68 83
326 320 313 310 308 303 293 281 283 272 268 268 264 264 270 267 262 266 265 262 262 263 261 256 249 245 245 244 244 242 238 238 236 236 234 229 231 242 237 219 227 223 225 220 212 206 210 205 195 167 163 162 163 152 162 172 175 165 160 156 155 144 142 138 152 160 156 153 151 149 153 154 148 146 133 122 150 144 130 120 111 104 95 104 90
319 319 322 319 311 305 307 303 296 290 280 273 267 262 257 264 270 268 268 265 263 262 262 262 256 246 245 243 242 240 240 239 237 237 239 238 236 236 241 220 220 220 220 215 210 205 203 200 198 176 177 187 178 179 170 173 157 151 157 161 152 151 138 132 144 170 170 152 146 149 149 149 138 138 144 137 124 120 125 124 136 140 131 108 93
308 309 310 309 307 305 303 303 304 299 292 285 280 276 275 268 265 268 266 267 262 259 259 258 261 257 249 245 246 243 240 241 240 238 238 239 240 241 242 236 223 213 215 214 214 199 202 205 188 183 191 188 185 172 171 164 163 165 168 165 153 155 165 160 164 128 182 159 154 145 152 160 151 151 144 134 128 122 118 128 154 140 122 104 92
301 300 299 291 292 292 291 288 285 284 283 281 280 284 280 277 272 269 269 265 264 259 256 257 259 259 257 252 247 243 239 235 235 238 239 242 242 244 244 241 235 225 217 209 205 201 202 198 192 197 192 192 164 164 162 162 165 169 171 165 168 163 161 170 167 172 174 166 150 149 145 159 156 141 131 129 126 112 114 145 164 141 116 100 81
293 293 288 290 286 285 283 286 284 279 278 277 279 280 278 276 274 271 269 266 265 262 257 254 256 257 256 255 256 245 240 234 236 239 240 243 244 244 246 245 240 230 226 223 213 201 190 200 204 198 192 169 167 176 174 172 167 167 167 163 167 174 172 173 164 142 153 165 134 144 150 158 159 151 129 122 116 107 106 152 156 124 109 92 76
305 302 299 292 290 287 285 287 289 288 282 283 287 282 279 277 275 273 268 267 265 262 261 256 254 253 250 252 255 253 240 231 232 234 238 242 242 243 244 239 233 230 227 223 219 212 202 204 198 197 186 169 176 176 178 166 166 173 167 167 170 168 173 172 144 136 146 162 158 140 137 158 161 146 130 121 119 113 127 145 134 117 105 89 76
320 319 317 315 307 299 297 293 291 288 285 276 281 283 282 284 283 277 271 268 265 264 260 256 252 252 248 246 245 251 247 234 226 225 235 236 236 237 238 235 229 224 220 221 214 207 207 212 201 187 176 181 178 170 168 175 177 172 171 167 160 146 118 98 90 108 128 150 149 138 143 148 135 139 130 131 126 117 104 113 126 117 98 86 75
316 310 306 300 308 312 306 303 305 302 300 294 294 294 293 293 293 285 276 269 267 266 264 258 254 249 248 243 243 244 242 238 228 227 231 231 229 231 230 232 228 223 224 217 206 201 197 193 189 179 179 178 170 166 165 162 147 121 105 100 105 120 128 127 124 136 139 97 208 136 109 133 133 143 125 118 131 129 129 117 95 101 95 87 70
322 323 319 315 314 313 311 310 305 302 302 304 302 303 304 299 298 286 279 273 269 268 266 263 256 253 246 242 239 245 239 234 230 236 238 227 224 225 223 215 214 212 220 209 201 191 177 172 182 183 166 163 163 159 157 147 141 135 129 132 144 145 135 127 128 141 151 140 159 117 99 127 142 134 126 122 110 134 147 130 88 85 91 83 63
311 311 311 309 307 304 301 300 299 298 298 300 297 302 299 297 292 287 282 277 273 270 272 266 260 254 248 239 239 241 241 237 232 233 233 221 218 217 211 202 200 203 196 174 166 175 176 169 165 154 156 161 160 158 154 147 143 139 145 158 162 154 155 153 142 141 120 138 152 127 106 127 121 128 126 119 100 90 141 129 103 76 69 69 56
294 299 302 300 299 298 291 289 296 292 291 295 292 292 294 292 289 279 280 275 279 274 271 271 260 249 250 242 237 238 238 241 239 234 227 212 207 207 202 200 199 198 184 160 154 140 137 127 134 134 143 149 148 147 149 149 151 158 158 147 150 156 153 149 127 120 120 210 199 174 127 150 143 152 146 158 147 93 87 81 100 84 82 97 64